Weather History for Milford, UT

Change the Weather History Date:

Sunday, November 10, 2013

  Actual Average Record
Temperature  
Mean Temperature 46 °F -  
Max Temperature 68 °F 50 °F 68 °F (2007)
Min Temperature 25 °F 24 °F 12 °F (2012)
Degree Days  
Heating Degree Days 18    
Moisture  
Dew Point 11 °F    
Average Humidity 29    
Maximum Humidity 55    
Minimum Humidity 4    
Precipitation  
Precipitation 0.00 in - - ()
Sea Level Pressure  
Sea Level Pressure 30.22 in    
Wind  
Wind Speed 6 mph (SSW)    
Max Wind Speed 10 mph    
Max Gust Speed -    
Visibility 10 miles    
Events      
Averages and records for this station are not official NWS values.
T = Trace of Precipitation, MM = Missing Value Source: NWS Daily Summary

Daily Weather History Graph

Daily Weather History Graph

Search for Another Location

Airport:

Trip Planner

Search our weather history database for the weather conditions in past years. The results will help you decide how hot, cold, wet, or windy it might be!

Date:

Astronomy

Nov. 10, 2013 Rise Set
Actual Time 7:08 AM MST 5:22 PM MST
Civil Twilight 6:40 AM MST 5:50 PM MST
Nautical Twilight 6:08 AM MST 6:22 PM MST
Astronomical Twilight 5:37 AM MST 6:53 PM MST
Moon 1:25 PM MST (11/10) No Moon Set
Length of Visible Light 11h 10m
Length of Day
10h 14m
First Quarter, 56% of the Moon is Illuminated
Nov 10
First Quarter
Nov 17
Full
Nov 25
Last Quarter
Dec 2
New
Dec 9
First Quarter

Hourly Weather History & Observations

Time (MST) Temp. Windchill Dew Point Humidity Pressure Visibility Wind Dir Wind Speed Gust Speed Precip Events Conditions
12:52 AM 32.0 °F 28.7 °F 12.0 °F 44% 30.18 in 10.0 mi SSW 3.5 mph - N/A   Clear
1:52 AM 34.0 °F 28.0 °F 15.1 °F 46% 30.17 in 10.0 mi South 6.9 mph - N/A   Clear
2:52 AM 32.0 °F 23.6 °F 15.1 °F 50% 30.18 in 10.0 mi SW 10.4 mph - N/A   Clear
3:52 AM 30.0 °F 23.2 °F 12.0 °F 47% 30.19 in 10.0 mi SSW 6.9 mph - N/A   Clear
4:52 AM 32.0 °F 26.4 °F 16.0 °F 52% 30.21 in 10.0 mi SSW 5.8 mph - N/A   Clear
5:52 AM 27.0 °F - 12.0 °F 53% 30.26 in 10.0 mi Calm Calm - N/A   Clear
6:52 AM 26.1 °F - 12.0 °F 55% 30.28 in 10.0 mi Calm Calm - N/A   Clear
7:52 AM 30.0 °F 26.5 °F 12.9 °F 49% 30.29 in 10.0 mi SSW 3.5 mph - N/A   Clear
8:52 AM 34.0 °F 28.8 °F 15.1 °F 46% 30.31 in 10.0 mi South 5.8 mph - N/A   Clear
9:52 AM 42.1 °F 39.2 °F 16.0 °F 35% 30.28 in 10.0 mi Variable 4.6 mph - N/A   Clear
10:52 AM 52.0 °F - 16.0 °F 24% 30.26 in 10.0 mi South 4.6 mph - N/A   Clear
11:52 AM 60.1 °F - 14.0 °F 16% 30.22 in 10.0 mi South 8.1 mph - N/A   Clear
12:52 PM 64.9 °F - 9.0 °F 11% 30.17 in 10.0 mi South 10.4 mph - N/A   Clear
1:52 PM 66.0 °F - 8.1 °F 10% 30.14 in 10.0 mi SSW 10.4 mph - N/A   Clear
2:52 PM 66.9 °F - 6.1 °F 9% 30.13 in 10.0 mi SSW 8.1 mph - N/A   Clear
3:52 PM 66.9 °F - 1.0 °F 7% 30.14 in 10.0 mi SSW 9.2 mph - N/A   Clear
4:52 PM 64.9 °F - 3.9 °F 9% 30.14 in 10.0 mi South 6.9 mph - N/A   Clear
5:52 PM 55.9 °F - 8.1 °F 15% 30.19 in 10.0 mi SSE 4.6 mph - N/A   Clear
6:52 PM 46.9 °F - 10.0 °F 22% 30.25 in 10.0 mi ESE 5.8 mph - N/A   Clear
7:52 PM 45.0 °F 39.7 °F 9.0 °F 23% 30.25 in 10.0 mi West 10.4 mph - N/A   Clear
8:52 PM 39.9 °F 37.8 °F 8.1 °F 27% 30.27 in 10.0 mi SSW 3.5 mph - N/A   Clear
9:52 PM 36.0 °F 29.6 °F 8.1 °F 31% 30.27 in 10.0 mi WSW 8.1 mph - N/A   Clear
10:52 PM 33.1 °F 26.9 °F 9.0 °F 37% 30.25 in 10.0 mi South 6.9 mph - N/A   Clear
11:52 PM 36.0 °F 31.1 °F 15.1 °F 43% 30.22 in 10.0 mi SW 5.8 mph - N/A   Clear